Valley City, ND

11:08 PM CST on November 19, 2019 (GMT -0600)
Valley City

Weather History for KBAC - October, 2019

Change the Weather History Date:

Monday, October 21, 2019

  Actual Average (KJMS) Record (KJMS)
Temperature  
Mean Temperature 40 °F -  
Max Temperature 44 °F 55 °F 83 °F (1901)
Min Temperature 37 °F 31 °F 7 °F (1930)
Degree Days  
Heating Degree Days 24    
Moisture  
Dew Point 42 °F    
Average Humidity 100    
Maximum Humidity 100    
Minimum Humidity 93    
Precipitation  
Precipitation 0.00 in - - ()
Sea Level Pressure  
Sea Level Pressure 29.69 in    
Wind  
Wind Speed 21 mph (North)    
Max Wind Speed 33 mph    
Max Gust Speed 45 mph    
Visibility 8 miles    
Events Rain , Snow    
Averages and records for this station are not official NWS values.
T = Trace of Precipitation, MM = Missing Value Source: NWS Daily Summary

Daily Weather History Graph

Daily Weather History Graph

Search for Another Location

Airport or City:

Astronomy

Oct. 21, 2019 Rise Set
Actual Time 7:58 AM CDT 6:34 PM CDT
Civil Twilight 7:27 AM CDT 7:05 PM CDT
Nautical Twilight 6:51 AM CDT 7:40 PM CDT
Astronomical Twilight 6:16 AM CDT 8:15 PM CDT
Moon No Moon Rise 3:30 PM CDT (10/21)
Length of Visible Light 11h 37m
Length of Day
10h 36m
Waning Gibbous, 48% of the Moon is Illuminated
Oct 21
Waning Gibbous
Oct 27
New
Nov 4
First Quarter
Nov 12
Full
Nov 19
Last Quarter

Hourly Weather History & Observations

Time (CDT) Temp. Windchill Dew Point Humidity Pressure Visibility Wind Dir Wind Speed Gust Speed Precip Events Conditions
12:15 AM 44.6 °F 37.4 °F 44.6 °F 100% 29.75 in 10.0 mi NNE 16.1 mph - N/A Rain Light Rain
12:35 AM 44.6 °F 37.2 °F 44.6 °F 100% 29.75 in 9.0 mi NE 17.3 mph - N/A Rain Light Rain
12:55 AM 44.6 °F 37.4 °F 44.6 °F 100% 29.74 in 10.0 mi NE 16.1 mph 24.2 mph N/A Rain Light Rain
1:15 AM 44.6 °F 37.2 °F 44.6 °F 100% 29.73 in 7.0 mi NE 17.3 mph 24.2 mph N/A Rain Light Rain
1:35 AM 44.6 °F 37.2 °F 44.6 °F 100% 29.72 in 7.0 mi NE 17.3 mph 24.2 mph N/A Rain Light Rain
1:55 AM 44.6 °F 36.4 °F 44.6 °F 100% 29.71 in 6.0 mi NE 20.7 mph - N/A Rain Light Rain
2:15 AM 44.6 °F 37.8 °F 44.6 °F 100% 29.72 in 7.0 mi NE 15.0 mph 23.0 mph N/A Rain Light Rain
2:35 AM 44.6 °F 37.8 °F 44.6 °F 100% 29.72 in 6.0 mi NE 15.0 mph - N/A Rain Light Rain
2:55 AM 44.6 °F 38.1 °F 44.6 °F 100% 29.71 in 5.0 mi NE 13.8 mph 19.6 mph N/A Rain Light Rain
3:15 AM 44.6 °F 37.4 °F 44.6 °F 100% 29.71 in 6.0 mi NE 16.1 mph 21.9 mph N/A Rain Light Rain
3:35 AM 44.6 °F 37.4 °F 44.6 °F 100% 29.70 in 7.0 mi NE 16.1 mph 24.2 mph N/A Rain Light Rain
3:55 AM 44.6 °F 37.8 °F 44.6 °F 100% 29.70 in 6.0 mi NNE 15.0 mph 24.2 mph N/A Rain Light Rain
4:15 AM 44.6 °F 36.6 °F 44.6 °F 100% 29.69 in 6.0 mi NNE 19.6 mph - N/A Rain Light Rain
4:35 AM 44.6 °F 36.9 °F 44.6 °F 100% 29.69 in 6.0 mi NNE 18.4 mph - N/A Rain Rain
4:55 AM 44.6 °F 36.6 °F 44.6 °F 100% 29.68 in 6.0 mi NNE 19.6 mph - N/A Rain Light Rain
5:15 AM 44.6 °F 36.9 °F 44.6 °F 100% 29.69 in 5.0 mi NNE 18.4 mph 25.3 mph N/A Rain Light Rain
5:35 AM 44.6 °F 36.9 °F 44.6 °F 100% 29.69 in 6.0 mi NNE 18.4 mph - N/A Rain Light Rain
5:55 AM 44.6 °F 36.4 °F 44.6 °F 100% 29.69 in 6.0 mi NNE 20.7 mph 27.6 mph N/A Rain Light Rain
6:15 AM 44.6 °F 35.9 °F 44.6 °F 100% 29.70 in 4.0 mi NE 23.0 mph 29.9 mph N/A Rain Light Rain
6:35 AM - - - N/A% 29.69 in 6.0 mi NNE 21.9 mph 29.9 mph N/A Rain Light Rain
6:55 AM 42.8 °F 33.5 °F 42.8 °F 100% 29.70 in 6.0 mi NNE 23.0 mph 32.2 mph N/A Rain Light Rain
7:15 AM 42.8 °F 34.0 °F 42.8 °F 100% 29.70 in 5.0 mi NNE 20.7 mph 29.9 mph N/A Rain Light Rain
7:35 AM 42.8 °F 33.1 °F 42.8 °F 100% 29.69 in 6.0 mi NNE 25.3 mph 32.2 mph N/A Rain Light Rain
7:55 AM 42.8 °F 34.0 °F 42.8 °F 100% 29.69 in 5.0 mi NNE 20.7 mph 31.1 mph N/A Rain Light Rain
8:15 AM 42.8 °F 34.8 °F 42.8 °F 100% 29.69 in 4.0 mi NNE 17.3 mph 29.9 mph N/A Rain Light Rain
8:35 AM 42.8 °F 33.5 °F 42.8 °F 100% 29.69 in 5.0 mi NNE 23.0 mph - N/A Rain Light Rain
8:55 AM 42.8 °F 33.3 °F 42.8 °F 100% 29.69 in 6.0 mi NNE 24.2 mph 32.2 mph N/A Rain Light Rain
9:15 AM 42.8 °F 33.8 °F 42.8 °F 100% 29.70 in 9.0 mi NNE 21.9 mph 29.9 mph N/A Rain Light Rain
9:35 AM 42.8 °F 33.8 °F 42.8 °F 100% 29.70 in 4.0 mi NNE 21.9 mph 33.4 mph N/A Rain Light Rain
9:55 AM 42.8 °F 34.0 °F 42.8 °F 100% 29.70 in 10.0 mi NNE 20.7 mph 33.4 mph N/A Rain Light Rain
10:15 AM 42.8 °F 33.5 °F 42.8 °F 100% 29.70 in 7.0 mi NNE 23.0 mph - N/A Rain Light Rain
10:35 AM 42.8 °F 34.0 °F 42.8 °F 100% 29.69 in 6.0 mi NNE 20.7 mph 28.8 mph N/A Rain Light Rain
10:55 AM 42.8 °F 34.3 °F 42.8 °F 100% 29.69 in 10.0 mi NNE 19.6 mph 29.9 mph N/A   Light Drizzle
11:15 AM 42.8 °F 33.8 °F 42.8 °F 100% 29.68 in 10.0 mi NNE 21.9 mph 29.9 mph N/A   Light Drizzle
11:35 AM 42.8 °F 33.5 °F 42.8 °F 100% 29.67 in 10.0 mi North 23.0 mph 32.2 mph N/A   Overcast
11:55 AM 44.6 °F 36.1 °F 44.6 °F 100% 29.67 in 10.0 mi North 21.9 mph 28.8 mph N/A   Mostly Cloudy
12:15 PM 44.6 °F 37.2 °F 44.6 °F 100% 29.68 in 10.0 mi North 17.3 mph 28.8 mph N/A   Mostly Cloudy
12:35 PM 44.6 °F 35.7 °F 44.6 °F 100% 29.67 in 10.0 mi North 24.2 mph 34.5 mph N/A   Overcast
12:55 PM 44.6 °F 34.9 °F 44.6 °F 100% 29.67 in 10.0 mi NNE 28.8 mph 42.6 mph N/A   Overcast
1:15 PM 44.6 °F 35.5 °F 44.6 °F 100% 29.66 in 10.0 mi North 25.3 mph 40.3 mph N/A   Overcast
1:35 PM 44.6 °F 34.7 °F 44.6 °F 100% 29.65 in 10.0 mi North 29.9 mph - N/A   Overcast
1:55 PM 44.6 °F 35.5 °F 44.6 °F 100% 29.65 in 10.0 mi North 25.3 mph 38.0 mph N/A   Overcast
2:15 PM 44.6 °F 35.7 °F 44.6 °F 100% 29.65 in 10.0 mi North 24.2 mph 36.8 mph N/A   Overcast
2:35 PM 44.6 °F 35.7 °F 44.6 °F 100% 29.65 in 10.0 mi North 24.2 mph 34.5 mph N/A   Overcast
2:55 PM 44.6 °F 35.1 °F 44.6 °F 100% 29.65 in 10.0 mi North 27.6 mph 40.3 mph N/A   Overcast
3:15 PM 44.6 °F 35.3 °F 44.6 °F 100% 29.65 in 10.0 mi North 26.5 mph 36.8 mph N/A   Overcast
3:35 PM 44.6 °F 36.1 °F 42.8 °F 93% 29.65 in 10.0 mi North 21.9 mph 35.7 mph N/A   Overcast
3:55 PM 44.6 °F 34.7 °F 42.8 °F 93% 29.65 in 10.0 mi North 29.9 mph 38.0 mph N/A   Overcast
4:15 PM 44.6 °F 35.9 °F 42.8 °F 93% 29.66 in 10.0 mi North 23.0 mph 35.7 mph N/A   Overcast
4:35 PM 42.8 °F 32.7 °F 42.8 °F 100% 29.66 in 10.0 mi North 27.6 mph 36.8 mph N/A   Overcast
4:55 PM 42.8 °F 32.9 °F 42.8 °F 100% 29.67 in 10.0 mi North 26.5 mph 35.7 mph N/A   Overcast
5:15 PM 42.8 °F 32.1 °F 42.8 °F 100% 29.67 in 10.0 mi North 31.1 mph 38.0 mph N/A   Overcast
5:35 PM 42.8 °F 32.3 °F 42.8 °F 100% 29.67 in 10.0 mi North 29.9 mph 39.1 mph N/A   Overcast
5:55 PM 42.8 °F 32.3 °F 41.0 °F 93% 29.68 in 10.0 mi North 29.9 mph - N/A   Overcast
6:15 PM 41.0 °F 31.1 °F 41.0 °F 100% 29.68 in 9.0 mi NNW 23.0 mph 38.0 mph N/A   Overcast
6:35 PM 41.0 °F 29.7 °F 41.0 °F 100% 29.69 in 10.0 mi NNW 31.1 mph 39.1 mph N/A   Overcast
6:55 PM 39.2 °F 28.0 °F 39.2 °F 100% 29.70 in 10.0 mi North 26.5 mph 35.7 mph N/A   Overcast
7:15 PM 39.2 °F 27.8 °F 39.2 °F 100% 29.71 in 7.0 mi North 27.6 mph 41.4 mph N/A   Overcast
7:35 PM 39.2 °F 26.8 °F 39.2 °F 100% 29.71 in 5.0 mi NNW 33.4 mph 44.9 mph N/A   Overcast
7:55 PM 39.2 °F 28.0 °F 39.2 °F 100% 29.71 in 8.0 mi NNW 26.5 mph 39.1 mph N/A   Overcast
8:15 PM 39.2 °F 28.7 °F 39.2 °F 100% 29.72 in 5.0 mi NNW 23.0 mph 33.4 mph N/A   Overcast
8:35 PM 37.4 °F 25.0 °F 37.4 °F 100% 29.71 in 4.0 mi NNW 29.9 mph 43.7 mph N/A   Overcast
8:55 PM 37.4 °F 25.9 °F 37.4 °F 100% 29.71 in 5.0 mi NNW 25.3 mph 40.3 mph N/A Snow Light Snow
9:15 PM 37.4 °F 25.0 °F 37.4 °F 100% 29.71 in 8.0 mi NNW 29.9 mph 40.3 mph N/A Snow Light Snow
9:35 PM 37.4 °F 25.2 °F 37.4 °F 100% 29.71 in 10.0 mi NNW 28.8 mph 41.4 mph N/A Snow Light Snow
9:55 PM 37.4 °F 24.8 °F 37.4 °F 100% 29.71 in 10.0 mi NNW 31.1 mph 39.1 mph N/A Snow Light Snow
10:15 PM 37.4 °F 25.0 °F 37.4 °F 100% 29.71 in 10.0 mi NNW 29.9 mph 36.8 mph N/A Snow Light Snow
10:35 PM 37.4 °F 26.6 °F 37.4 °F 100% 29.71 in 10.0 mi NNW 21.9 mph 39.1 mph N/A Snow Light Snow
10:55 PM 37.4 °F 25.4 °F 37.4 °F 100% 29.70 in 10.0 mi NNW 27.6 mph 40.3 mph N/A Snow Light Snow
11:15 PM 37.4 °F 25.6 °F 37.4 °F 100% 29.70 in 10.0 mi NNW 26.5 mph 35.7 mph N/A Snow Light Snow
11:35 PM 37.4 °F 25.2 °F 37.4 °F 100% 29.70 in 10.0 mi NNW 28.8 mph 36.8 mph N/A Snow Light Snow
11:55 PM 37.4 °F 26.4 °F 37.4 °F 100% 29.70 in 10.0 mi NNW 23.0 mph 34.5 mph N/A Snow Light Snow